CAL837 WALL-WAPP

Flight info

Callsign CAL837
Flight time 2h 4m
Altitude 41000
Route ATGE2B ATGER KDI W54 RALTO HOLBA HOLBA1F
Aircraft A359/H-SDE2E3GHIJ3J4J5LM1ORWXY/LB1D1

Departure

Time 2026-05-06 16:17
Airport Sultan Aji Muhammad Sulaiman Sepinggan International Airport (WALL)

Arrival

Time 2026-05-06 18:21
Airport Pattimura International Airport (WAPP)
Time Latitude Longitude Altitude Speed Heading
2026-05-06 15:53 -1.26228 116.90090 27 ft 0 kts 337°
2026-05-06 16:08 -1.26248 116.90099 26 ft 4 kts 335°
2026-05-06 16:09 -1.26263 116.90104 26 ft 3 kts 10°
2026-05-06 16:09 -1.26284 116.90098 24 ft 4 kts 40°
2026-05-06 16:09 -1.26298 116.90080 24 ft 4 kts 68°
2026-05-06 16:09 -1.26306 116.90061 27 ft 1 kts 65°
2026-05-06 16:10 -1.26307 116.90058 26 ft 0 kts 65°
2026-05-06 16:11 -1.26305 116.90063 27 ft 7 kts 64°
2026-05-06 16:12 -1.26256 116.90171 27 ft 20 kts 68°
2026-05-06 16:12 -1.26210 116.90300 27 ft 12 kts 88°
2026-05-06 16:12 -1.26241 116.90381 27 ft 14 kts 120°
2026-05-06 16:12 -1.26306 116.90457 28 ft 15 kts 148°
2026-05-06 16:13 -1.26381 116.90469 28 ft 9 kts 178°
2026-05-06 16:13 -1.26418 116.90436 28 ft 8 kts 241°
2026-05-06 16:13 -1.26425 116.90421 28 ft 0 kts 247°
2026-05-06 16:16 -1.26434 116.90398 28 ft 19 kts 247°
2026-05-06 16:16 -1.26605 116.89996 28 ft 105 kts 246°
2026-05-06 16:16 -1.26988 116.89095 100 ft 169 kts 247°
2026-05-06 16:17 -1.27445 116.88022 994 ft 164 kts 247°
2026-05-06 16:17 -1.27869 116.86956 1675 ft 174 kts 247°
2026-05-06 16:17 -1.28366 116.85763 1934 ft 197 kts 246°
2026-05-06 16:17 -1.28940 116.84428 2182 ft 223 kts 245°
2026-05-06 16:18 -1.29588 116.82921 2494 ft 247 kts 245°
2026-05-06 16:18 -1.30277 116.81306 3044 ft 258 kts 246°
2026-05-06 16:18 -1.30986 116.79639 3721 ft 263 kts 246°
2026-05-06 16:18 -1.31748 116.77957 4359 ft 269 kts 240°
2026-05-06 16:19 -1.32907 116.76487 5014 ft 272 kts 220°
2026-05-06 16:19 -1.34544 116.75550 5701 ft 274 kts 200°
2026-05-06 16:19 -1.36381 116.75008 6377 ft 277 kts 188°
2026-05-06 16:19 -1.38303 116.75024 7028 ft 279 kts 167°
2026-05-06 16:20 -1.40050 116.75833 7714 ft 280 kts 141°
2026-05-06 16:20 -1.41509 116.77131 8432 ft 283 kts 135°
2026-05-06 16:20 -1.42921 116.78514 9152 ft 286 kts 135°
2026-05-06 16:20 -1.44353 116.79922 9868 ft 290 kts 135°
2026-05-06 16:21 -1.45813 116.81350 10388 ft 300 kts 135°
2026-05-06 16:21 -1.47352 116.82852 10699 ft 317 kts 135°
2026-05-06 16:21 -1.48912 116.84372 10980 ft 333 kts 135°
2026-05-06 16:21 -1.50662 116.86074 11282 ft 347 kts 135°
2026-05-06 16:22 -1.52422 116.87786 11606 ft 358 kts 135°
2026-05-06 16:22 -1.54226 116.89540 12045 ft 365 kts 135°
2026-05-06 16:22 -1.56059 116.91321 12529 ft 369 kts 135°
2026-05-06 16:22 -1.57910 116.93121 13049 ft 373 kts 135°
2026-05-06 16:23 -1.59777 116.94936 13543 ft 376 kts 135°
2026-05-06 16:23 -1.61660 116.96767 14017 ft 379 kts 135°
2026-05-06 16:23 -1.63561 116.98615 14463 ft 382 kts 135°
2026-05-06 16:23 -1.65468 117.00470 14916 ft 385 kts 135°
2026-05-06 16:24 -1.67392 117.02341 15371 ft 387 kts 135°
2026-05-06 16:24 -1.69327 117.04224 15825 ft 390 kts 135°
2026-05-06 16:24 -1.71276 117.06119 16278 ft 392 kts 135°
2026-05-06 16:24 -1.73238 117.08028 16719 ft 395 kts 135°
2026-05-06 16:25 -1.75212 117.09947 17168 ft 397 kts 135°
2026-05-06 16:25 -1.77198 117.11878 17600 ft 400 kts 135°
2026-05-06 16:25 -1.79203 117.13829 18027 ft 403 kts 135°
2026-05-06 16:25 -1.81219 117.15789 18411 ft 406 kts 135°
2026-05-06 16:26 -1.83246 117.17761 18790 ft 408 kts 135°
2026-05-06 16:26 -1.85285 117.19745 19176 ft 410 kts 135°
2026-05-06 16:26 -1.87332 117.21736 19562 ft 412 kts 135°
2026-05-06 16:26 -1.89389 117.23738 19942 ft 414 kts 135°
2026-05-06 16:27 -1.91455 117.25748 20324 ft 416 kts 135°
2026-05-06 16:27 -1.92827 117.27083 20575 ft 417 kts 135°
2026-05-06 16:27 -1.94912 117.29111 20967 ft 419 kts 135°
2026-05-06 16:27 -1.97715 117.31839 21462 ft 422 kts 135°
2026-05-06 16:28 -1.99115 117.33200 21714 ft 423 kts 135°
2026-05-06 16:28 -2.01228 117.35256 22084 ft 425 kts 135°
2026-05-06 16:28 -2.04044 117.37997 22583 ft 428 kts 135°
2026-05-06 16:28 -2.06181 117.40077 22952 ft 430 kts 135°
2026-05-06 16:29 -2.07636 117.41492 23204 ft 431 kts 135°
2026-05-06 16:29 -2.10493 117.44273 23620 ft 435 kts 135°
2026-05-06 16:29 -2.11957 117.45697 23808 ft 436 kts 135°
2026-05-06 16:29 -2.14135 117.47818 24094 ft 438 kts 135°
2026-05-06 16:30 -2.16323 117.49948 24388 ft 440 kts 135°
2026-05-06 16:30 -2.17779 117.51364 24601 ft 441 kts 135°
2026-05-06 16:30 -2.20726 117.54233 24988 ft 444 kts 135°
2026-05-06 16:30 -2.22915 117.56364 25314 ft 446 kts 135°
2026-05-06 16:31 -2.25172 117.58561 25647 ft 448 kts 135°
2026-05-06 16:31 -2.27378 117.60709 26012 ft 450 kts 135°
2026-05-06 16:31 -2.29624 117.62895 26361 ft 452 kts 135°
2026-05-06 16:31 -2.31883 117.65095 26712 ft 455 kts 135°
2026-05-06 16:32 -2.34157 117.67309 27108 ft 457 kts 135°
2026-05-06 16:32 -2.36438 117.69530 27495 ft 460 kts 135°
2026-05-06 16:32 -2.38737 117.71769 27899 ft 462 kts 135°
2026-05-06 16:32 -2.41046 117.74017 28312 ft 465 kts 135°
2026-05-06 16:33 -2.43370 117.76281 28708 ft 467 kts 135°
2026-05-06 16:33 -2.45703 117.78552 29078 ft 470 kts 135°
2026-05-06 16:33 -2.48052 117.80841 29460 ft 473 kts 135°
2026-05-06 16:34 -2.52794 117.85459 30154 ft 479 kts 135°
2026-05-06 16:34 -2.55184 117.87788 30461 ft 481 kts 135°
2026-05-06 16:34 -2.57587 117.90129 30773 ft 483 kts 135°
2026-05-06 16:34 -2.60003 117.92483 31074 ft 486 kts 135°
2026-05-06 16:35 -2.62428 117.94846 31378 ft 488 kts 135°
2026-05-06 16:35 -2.64862 117.97217 31655 ft 490 kts 135°
2026-05-06 16:35 -2.67305 117.99598 31918 ft 492 kts 135°
2026-05-06 16:35 -2.69765 118.01995 32180 ft 494 kts 135°
2026-05-06 16:36 -2.72231 118.04399 32445 ft 496 kts 135°
2026-05-06 16:36 -2.74710 118.06815 32710 ft 498 kts 135°
2026-05-06 16:36 -2.77196 118.09238 33021 ft 499 kts 135°
2026-05-06 16:36 -2.79669 118.11667 33376 ft 498 kts 134°
2026-05-06 16:37 -2.81925 118.14284 33723 ft 497 kts 126°
2026-05-06 16:37 -2.83740 118.17214 34051 ft 495 kts 116°
2026-05-06 16:37 -2.85123 118.20364 34352 ft 494 kts 110°
2026-05-06 16:37 -2.86222 118.23617 34666 ft 494 kts 107°
2026-05-06 16:38 -2.87172 118.26916 34960 ft 493 kts 105°
2026-05-06 16:38 -2.88065 118.30222 35264 ft 492 kts 105°
2026-05-06 16:38 -2.88953 118.33530 35564 ft 492 kts 105°
2026-05-06 16:38 -2.89856 118.36826 35863 ft 491 kts 105°
2026-05-06 16:39 -2.90780 118.40113 36155 ft 490 kts 105°
2026-05-06 16:39 -2.91716 118.43385 36447 ft 490 kts 106°
2026-05-06 16:39 -2.92663 118.46658 36734 ft 489 kts 106°
2026-05-06 16:39 -2.93601 118.49881 37035 ft 488 kts 106°
2026-05-06 16:40 -2.94549 118.53133 37335 ft 487 kts 106°
2026-05-06 16:40 -2.95497 118.56385 37631 ft 486 kts 106°
2026-05-06 16:40 -2.96441 118.59630 37934 ft 485 kts 106°
2026-05-06 16:40 -2.97383 118.62869 38236 ft 484 kts 106°
2026-05-06 16:41 -2.98322 118.66101 38549 ft 483 kts 106°
2026-05-06 16:41 -2.99257 118.69321 38777 ft 482 kts 106°
2026-05-06 16:41 -3.00193 118.72543 38859 ft 482 kts 106°
2026-05-06 16:42 -3.02060 118.78979 38882 ft 481 kts 106°
2026-05-06 16:42 -3.03926 118.85407 38886 ft 481 kts 106°
2026-05-06 16:43 -3.05790 118.91833 38890 ft 481 kts 106°
2026-05-06 16:43 -3.07653 118.98257 38895 ft 481 kts 106°
2026-05-06 16:44 -3.09517 119.04684 38907 ft 481 kts 106°
2026-05-06 16:44 -3.11361 119.11040 38916 ft 481 kts 106°
2026-05-06 16:45 -3.13241 119.17526 38922 ft 480 kts 106°
2026-05-06 16:45 -3.15098 119.23935 38927 ft 479 kts 106°
2026-05-06 16:46 -3.16942 119.30298 38931 ft 479 kts 106°
2026-05-06 16:46 -3.18796 119.36698 38939 ft 479 kts 106°
2026-05-06 16:47 -3.20647 119.43091 38938 ft 478 kts 106°
2026-05-06 16:47 -3.22492 119.49462 38941 ft 478 kts 106°
2026-05-06 16:48 -3.24347 119.55872 38942 ft 478 kts 106°
2026-05-06 16:48 -3.26188 119.62236 38946 ft 478 kts 106°
2026-05-06 16:49 -3.28005 119.68515 38946 ft 478 kts 106°
2026-05-06 16:49 -3.29846 119.74883 38947 ft 478 kts 106°
2026-05-06 16:50 -3.31691 119.81264 38946 ft 478 kts 106°
2026-05-06 16:50 -3.33535 119.87642 38945 ft 478 kts 106°
2026-05-06 16:51 -3.35383 119.94039 38949 ft 479 kts 106°
2026-05-06 16:51 -3.37236 120.00443 38939 ft 479 kts 106°
2026-05-06 16:52 -3.39084 120.06807 38934 ft 479 kts 106°
2026-05-06 16:52 -3.40945 120.13265 38929 ft 480 kts 106°
2026-05-06 16:53 -3.42778 120.19641 38924 ft 480 kts 106°
2026-05-06 16:53 -3.44631 120.26065 38916 ft 481 kts 106°
2026-05-06 16:54 -3.46487 120.32500 38910 ft 481 kts 106°
2026-05-06 16:54 -3.48342 120.38932 38901 ft 481 kts 106°
2026-05-06 16:55 -3.50200 120.45373 38890 ft 482 kts 106°
2026-05-06 16:55 -3.52060 120.51825 38890 ft 483 kts 106°
2026-05-06 16:56 -3.53923 120.58289 38885 ft 483 kts 106°
2026-05-06 16:56 -3.55784 120.64749 38882 ft 483 kts 106°
2026-05-06 16:57 -3.57644 120.71208 38884 ft 483 kts 106°
2026-05-06 16:57 -3.59505 120.77667 38889 ft 483 kts 106°
2026-05-06 16:58 -3.61367 120.84135 38891 ft 483 kts 106°
2026-05-06 16:58 -3.63228 120.90601 38899 ft 483 kts 106°
2026-05-06 16:59 -3.65086 120.97060 38900 ft 483 kts 106°
2026-05-06 16:59 -3.66943 121.03516 38911 ft 483 kts 105°
2026-05-06 17:00 -3.68799 121.09972 38917 ft 482 kts 105°
2026-05-06 17:00 -3.70653 121.16422 38915 ft 481 kts 105°
2026-05-06 17:01 -3.72504 121.22862 38921 ft 481 kts 105°
2026-05-06 17:01 -3.74351 121.29288 38928 ft 480 kts 105°
2026-05-06 17:02 -3.76197 121.35715 38929 ft 480 kts 105°
2026-05-06 17:02 -3.78045 121.42154 38929 ft 481 kts 105°
2026-05-06 17:03 -3.79893 121.48594 38923 ft 481 kts 105°
2026-05-06 17:03 -3.81741 121.55033 38926 ft 482 kts 105°
2026-05-06 17:04 -3.83590 121.61474 38922 ft 481 kts 105°
2026-05-06 17:04 -3.85436 121.67915 38920 ft 481 kts 105°
2026-05-06 17:05 -3.87283 121.74360 38917 ft 481 kts 105°
2026-05-06 17:05 -3.89118 121.80762 38913 ft 482 kts 105°
2026-05-06 17:06 -3.90966 121.87213 38910 ft 482 kts 105°
2026-05-06 17:06 -3.92816 121.93672 38907 ft 482 kts 105°
2026-05-06 17:07 -3.94665 122.00128 38902 ft 482 kts 105°
2026-05-06 17:07 -3.96513 122.06583 38898 ft 482 kts 105°
2026-05-06 17:08 -3.98359 122.13037 38895 ft 482 kts 105°
2026-05-06 17:08 -4.00206 122.19493 38892 ft 482 kts 105°
2026-05-06 17:09 -4.02051 122.25943 38888 ft 482 kts 105°
2026-05-06 17:09 -4.03895 122.32396 38888 ft 482 kts 105°
2026-05-06 17:10 -4.05741 122.38856 38888 ft 483 kts 105°
2026-05-06 17:10 -4.07190 122.45404 38886 ft 482 kts 95°
2026-05-06 17:11 -4.07105 122.52101 38891 ft 481 kts 86°
2026-05-06 17:11 -4.06599 122.58788 38889 ft 482 kts 85°
2026-05-06 17:12 -4.06043 122.65484 38885 ft 482 kts 85°
2026-05-06 17:12 -4.05508 122.72186 38882 ft 483 kts 85°
2026-05-06 17:13 -4.04990 122.78882 38886 ft 482 kts 85°
2026-05-06 17:13 -4.04481 122.85519 38882 ft 481 kts 85°
2026-05-06 17:14 -4.03966 122.92194 38885 ft 481 kts 85°
2026-05-06 17:14 -4.03442 122.98863 38879 ft 481 kts 85°
2026-05-06 17:15 -4.02924 123.05545 38872 ft 482 kts 85°
2026-05-06 17:15 -4.02418 123.12242 38878 ft 483 kts 85°
2026-05-06 17:16 -4.02007 123.18959 38872 ft 483 kts 89°
2026-05-06 17:16 -4.01924 123.25694 38873 ft 484 kts 89°
2026-05-06 17:17 -4.01825 123.31352 38872 ft 485 kts 89°
2026-05-06 17:17 -4.01664 123.39205 38870 ft 486 kts 89°
2026-05-06 17:18 -4.01541 123.44879 38867 ft 486 kts 89°
2026-05-06 17:18 -4.01392 123.51609 38868 ft 487 kts 89°
2026-05-06 17:19 -4.01242 123.58380 38869 ft 487 kts 89°
2026-05-06 17:19 -4.01090 123.65160 38866 ft 487 kts 88°
2026-05-06 17:20 -4.00939 123.71941 38865 ft 488 kts 88°
2026-05-06 17:20 -4.00785 123.78760 38869 ft 490 kts 88°
2026-05-06 17:21 -4.00631 123.85597 38864 ft 491 kts 88°
2026-05-06 17:21 -4.00475 123.92436 38863 ft 491 kts 88°
2026-05-06 17:22 -4.00322 123.99277 38866 ft 492 kts 88°
2026-05-06 17:22 -4.00165 124.06133 38864 ft 492 kts 88°
2026-05-06 17:23 -4.00008 124.12977 38861 ft 492 kts 88°
2026-05-06 17:23 -3.99850 124.19821 38866 ft 491 kts 88°
2026-05-06 17:24 -3.99692 124.26655 38861 ft 490 kts 88°
2026-05-06 17:24 -3.99534 124.33480 38863 ft 490 kts 88°
2026-05-06 17:25 -3.99376 124.40296 38865 ft 490 kts 88°
2026-05-06 17:25 -3.99217 124.47113 38858 ft 489 kts 89°
2026-05-06 17:26 -3.99057 124.53924 38859 ft 489 kts 89°
2026-05-06 17:26 -3.98898 124.60719 38859 ft 488 kts 89°
2026-05-06 17:27 -3.98738 124.67516 38857 ft 488 kts 89°
2026-05-06 17:27 -3.98577 124.74318 38857 ft 489 kts 89°
2026-05-06 17:28 -3.98415 124.81126 38857 ft 489 kts 89°
2026-05-06 17:28 -3.98253 124.87931 38858 ft 489 kts 89°
2026-05-06 17:29 -3.98090 124.94745 38857 ft 490 kts 89°
2026-05-06 17:29 -3.97927 125.01563 38857 ft 490 kts 89°
2026-05-06 17:30 -3.97763 125.08389 38857 ft 490 kts 89°
2026-05-06 17:30 -3.97598 125.15216 38855 ft 490 kts 89°
2026-05-06 17:31 -3.97432 125.22038 38848 ft 490 kts 89°
2026-05-06 17:31 -3.97350 125.25446 38630 ft 489 kts 89°
2026-05-06 17:31 -3.97267 125.28856 38394 ft 490 kts 88°
2026-05-06 17:31 -3.97184 125.32270 38130 ft 490 kts 88°
2026-05-06 17:32 -3.97100 125.35686 37864 ft 491 kts 88°
2026-05-06 17:32 -3.97017 125.39101 37606 ft 491 kts 88°
2026-05-06 17:32 -3.96933 125.42520 37351 ft 492 kts 88°
2026-05-06 17:32 -3.96849 125.45947 37095 ft 492 kts 88°
2026-05-06 17:33 -3.96764 125.49375 36832 ft 491 kts 88°
2026-05-06 17:33 -3.96680 125.52792 36663 ft 492 kts 88°
2026-05-06 17:33 -3.96596 125.56226 36711 ft 495 kts 88°
2026-05-06 17:33 -3.96510 125.59670 36838 ft 495 kts 88°
2026-05-06 17:34 -3.96425 125.63117 36856 ft 495 kts 88°
2026-05-06 17:34 -3.96255 125.69998 36856 ft 494 kts 88°
2026-05-06 17:35 -3.96085 125.76874 36854 ft 494 kts 88°
2026-05-06 17:35 -3.95917 125.83756 36851 ft 494 kts 88°
2026-05-06 17:36 -3.95654 125.94080 36853 ft 495 kts 88°
2026-05-06 17:36 -3.95479 126.00968 36858 ft 495 kts 88°
2026-05-06 17:37 -3.95305 126.07859 36859 ft 495 kts 88°
2026-05-06 17:37 -3.95130 126.14747 36855 ft 495 kts 88°
2026-05-06 17:38 -3.94955 126.21649 36858 ft 496 kts 88°
2026-05-06 17:38 -3.94779 126.28549 36860 ft 496 kts 88°
2026-05-06 17:39 -3.94602 126.35453 36858 ft 496 kts 88°
2026-05-06 17:39 -3.94289 126.42301 36869 ft 496 kts 82°
2026-05-06 17:40 -3.93078 126.49096 36868 ft 496 kts 79°
2026-05-06 17:40 -3.91807 126.55878 36872 ft 496 kts 79°
2026-05-06 17:41 -3.90545 126.62666 36875 ft 496 kts 79°
2026-05-06 17:41 -3.89285 126.69452 36876 ft 495 kts 79°
2026-05-06 17:42 -3.88660 126.72822 36500 ft 490 kts 79°
2026-05-06 17:42 -3.88042 126.76156 35516 ft 483 kts 79°
2026-05-06 17:42 -3.87428 126.79461 34045 ft 483 kts 79°
2026-05-06 17:42 -3.86812 126.82774 32289 ft 486 kts 80°
2026-05-06 17:43 -3.86191 126.86110 30474 ft 490 kts 81°
2026-05-06 17:43 -3.85569 126.89474 28448 ft 493 kts 81°
2026-05-06 17:43 -3.84945 126.92853 26538 ft 493 kts 80°
2026-05-06 17:43 -3.84329 126.96171 25541 ft 474 kts 80°
2026-05-06 17:44 -3.83729 126.99378 25252 ft 463 kts 79°
2026-05-06 17:44 -3.83156 127.02452 24898 ft 445 kts 79°
2026-05-06 17:44 -3.82585 127.05534 24419 ft 454 kts 79°
2026-05-06 17:44 -3.82011 127.08634 23904 ft 451 kts 79°
2026-05-06 17:45 -3.81440 127.11709 23377 ft 447 kts 79°
2026-05-06 17:45 -3.80874 127.14750 22809 ft 442 kts 79°
2026-05-06 17:45 -3.80313 127.17764 22291 ft 437 kts 79°
2026-05-06 17:45 -3.79760 127.20734 21791 ft 433 kts 79°
2026-05-06 17:46 -3.79209 127.23695 21292 ft 432 kts 79°
2026-05-06 17:46 -3.78660 127.26643 20788 ft 429 kts 79°
2026-05-06 17:46 -3.78116 127.29567 20288 ft 426 kts 79°
2026-05-06 17:46 -3.77576 127.32468 19784 ft 422 kts 79°
2026-05-06 17:47 -3.77040 127.35345 19284 ft 418 kts 79°
2026-05-06 17:47 -3.76509 127.38199 18777 ft 415 kts 79°
2026-05-06 17:47 -3.75989 127.40990 18287 ft 412 kts 79°
2026-05-06 17:47 -3.75458 127.43837 17739 ft 409 kts 79°
2026-05-06 17:48 -3.74944 127.46592 17224 ft 406 kts 79°
2026-05-06 17:48 -3.74430 127.49348 16731 ft 401 kts 79°
2026-05-06 17:48 -3.73920 127.52084 16222 ft 399 kts 79°
2026-05-06 17:48 -3.73412 127.54813 15726 ft 398 kts 79°
2026-05-06 17:49 -3.72906 127.57527 15226 ft 395 kts 80°
2026-05-06 17:49 -3.72400 127.60239 15004 ft 384 kts 80°
2026-05-06 17:49 -3.71926 127.62775 14879 ft 369 kts 80°
2026-05-06 17:49 -3.71466 127.65255 14614 ft 358 kts 80°
2026-05-06 17:50 -3.71008 127.67720 13805 ft 365 kts 80°
2026-05-06 17:50 -3.70734 127.70280 12899 ft 373 kts 90°
2026-05-06 17:50 -3.70796 127.72723 12398 ft 375 kts 93°
2026-05-06 17:50 -3.70909 127.75316 11900 ft 371 kts 93°
2026-05-06 17:51 -3.71020 127.77888 11418 ft 369 kts 92°
2026-05-06 17:51 -3.71127 127.80446 10945 ft 366 kts 92°
2026-05-06 17:51 -3.71229 127.82955 10710 ft 353 kts 92°
2026-05-06 17:51 -3.71325 127.85308 10566 ft 321 kts 92°
2026-05-06 17:52 -3.71411 127.87427 10431 ft 289 kts 92°
2026-05-06 17:52 -3.71489 127.89353 10300 ft 266 kts 92°
2026-05-06 17:52 -3.71564 127.91202 10197 ft 271 kts 92°
2026-05-06 17:52 -3.71641 127.93092 10086 ft 271 kts 92°
2026-05-06 17:53 -3.71719 127.95060 10040 ft 299 kts 92°
2026-05-06 17:53 -3.71808 127.97234 10009 ft 321 kts 92°
2026-05-06 17:53 -3.71900 127.99487 9953 ft 325 kts 92°
2026-05-06 17:53 -3.71990 128.01724 9604 ft 320 kts 92°
2026-05-06 17:54 -3.72076 128.03948 9168 ft 319 kts 92°
2026-05-06 17:54 -3.72167 128.06149 8997 ft 311 kts 92°
2026-05-06 17:54 -3.72209 128.08262 8776 ft 294 kts 91°
2026-05-06 17:54 -3.72219 128.10258 8223 ft 280 kts 90°
2026-05-06 17:55 -3.72213 128.12198 7798 ft 278 kts 91°
2026-05-06 17:55 -3.72231 128.14121 7458 ft 276 kts 91°
2026-05-06 17:55 -3.72256 128.16041 7140 ft 274 kts 91°
2026-05-06 17:55 -3.72290 128.17942 6905 ft 272 kts 92°
2026-05-06 17:56 -3.72369 128.19827 6498 ft 268 kts 93°
2026-05-06 17:56 -3.72456 128.21688 6152 ft 270 kts 93°
2026-05-06 17:56 -3.72538 128.23560 5857 ft 268 kts 93°
2026-05-06 17:56 -3.72574 128.25406 5515 ft 265 kts 89°
2026-05-06 17:57 -3.72191 128.27196 5312 ft 263 kts 70°
2026-05-06 17:57 -3.71243 128.28731 4845 ft 258 kts 49°
2026-05-06 17:57 -3.69842 128.29763 4508 ft 245 kts 30°
2026-05-06 17:57 -3.68255 128.30254 4240 ft 234 kts 12°
2026-05-06 17:58 -3.66674 128.30226 3984 ft 224 kts 353°
2026-05-06 17:58 -3.65254 128.29749 3710 ft 214 kts 337°
2026-05-06 17:58 -3.63985 128.28856 3139 ft 228 kts 318°
2026-05-06 17:58 -3.63071 128.27617 2851 ft 218 kts 298°
2026-05-06 17:59 -3.62601 128.26251 2793 ft 194 kts 281°
2026-05-06 17:59 -3.62510 128.24999 2789 ft 173 kts 265°
2026-05-06 17:59 -3.62702 128.23841 2786 ft 162 kts 251°
2026-05-06 17:59 -3.63177 128.22850 2762 ft 157 kts 233°
2026-05-06 18:00 -3.63785 128.21971 2561 ft 153 kts 228°
2026-05-06 18:00 -3.64480 128.21177 2446 ft 151 kts 221°
2026-05-06 18:00 -3.65224 128.20439 2327 ft 150 kts 220°
2026-05-06 18:00 -3.65975 128.19704 2311 ft 151 kts 220°
2026-05-06 18:01 -3.66732 128.18967 2201 ft 153 kts 219°
2026-05-06 18:01 -3.67486 128.18225 1979 ft 151 kts 221°
2026-05-06 18:01 -3.68211 128.17473 1778 ft 150 kts 226°
2026-05-06 18:01 -3.68741 128.16565 1596 ft 153 kts 249°
2026-05-06 18:02 -3.68859 128.15508 1388 ft 154 kts 277°
2026-05-06 18:02 -3.68610 128.14484 1197 ft 151 kts 288°
2026-05-06 18:02 -3.68286 128.13496 994 ft 148 kts 289°
2026-05-06 18:02 -3.68152 128.12489 819 ft 144 kts 263°
2026-05-06 18:03 -3.68314 128.11835 732 ft 144 kts 243°
2026-05-06 18:03 -3.68924 128.11063 483 ft 140 kts 220°
2026-05-06 18:03 -3.69623 128.10397 318 ft 151 kts 219°
2026-05-06 18:03 -3.70610 128.09383 115 ft 148 kts 225°
2026-05-06 18:04 -3.71090 128.08907 70 ft 144 kts 225°
2026-05-06 18:04 -3.71886 128.08113 141 ft 181 kts 225°
2026-05-06 18:04 -3.72771 128.07227 1369 ft 183 kts 222°
2026-05-06 18:04 -3.73754 128.06251 2094 ft 213 kts 221°
2026-05-06 18:05 -3.74852 128.05170 2471 ft 228 kts 221°
2026-05-06 18:05 -3.75990 128.04038 3122 ft 230 kts 221°
2026-05-06 18:05 -3.77151 128.02964 3876 ft 225 kts 213°
2026-05-06 18:05 -3.78449 128.02166 4603 ft 219 kts 199°
2026-05-06 18:06 -3.78483 128.02151 4621 ft 219 kts 199°
2026-05-06 18:06 -3.79917 128.01722 5340 ft 212 kts 184°
2026-05-06 18:06 -3.81361 128.01667 6070 ft 203 kts 171°
2026-05-06 18:06 -3.82732 128.01944 6663 ft 203 kts 158°
2026-05-06 18:07 -3.84053 128.02553 6940 ft 218 kts 146°
2026-05-06 18:07 -3.85251 128.03530 6995 ft 225 kts 131°
2026-05-06 18:07 -3.86169 128.04805 7002 ft 229 kts 118°
2026-05-06 18:07 -3.86796 128.06375 6985 ft 257 kts 102°
2026-05-06 18:08 -3.86732 128.08194 6989 ft 270 kts 73°
2026-05-06 18:08 -3.85737 128.09796 6987 ft 276 kts 47°
2026-05-06 18:08 -3.84195 128.10952 7004 ft 278 kts 37°
2026-05-06 18:08 -3.82639 128.12104 7004 ft 279 kts 40°
2026-05-06 18:09 -3.81139 128.13331 7006 ft 278 kts 42°
2026-05-06 18:09 -3.79653 128.14575 7010 ft 278 kts 42°
2026-05-06 18:09 -3.78171 128.15823 7005 ft 278 kts 43°
2026-05-06 18:09 -3.76689 128.17071 7009 ft 278 kts 42°
2026-05-06 18:10 -3.75233 128.18339 7006 ft 278 kts 46°
2026-05-06 18:10 -3.74057 128.19819 6909 ft 261 kts 62°
2026-05-06 18:10 -3.73424 128.21422 6666 ft 239 kts 80°
2026-05-06 18:10 -3.73378 128.23007 6426 ft 220 kts 100°
2026-05-06 18:11 -3.73895 128.24370 6248 ft 202 kts 122°
2026-05-06 18:11 -3.74839 128.25289 6238 ft 178 kts 146°
2026-05-06 18:11 -3.75668 128.26071 6315 ft 153 kts 122°
2026-05-06 18:11 -3.76012 128.27063 6134 ft 152 kts 96°
2026-05-06 18:12 -3.75868 128.28090 5844 ft 149 kts 73°
2026-05-06 18:12 -3.75346 128.28971 5565 ft 148 kts 54°
2026-05-06 18:12 -3.74552 128.29620 5440 ft 152 kts 35°
2026-05-06 18:12 -3.73576 128.30023 5479 ft 154 kts 22°
2026-05-06 18:13 -3.72506 128.30198 5516 ft 158 kts
2026-05-06 18:13 -3.71392 128.30171 5359 ft 162 kts 360°
2026-05-06 18:13 -3.70285 128.30058 5134 ft 155 kts
2026-05-06 18:13 -3.69199 128.30240 4961 ft 163 kts 12°
2026-05-06 18:14 -3.68063 128.30348 4668 ft 168 kts
2026-05-06 18:14 -3.66887 128.30247 4228 ft 172 kts 358°
2026-05-06 18:14 -3.65689 128.30036 3734 ft 179 kts 347°
2026-05-06 18:14 -3.64559 128.29539 3445 ft 175 kts 331°
2026-05-06 18:15 -3.63670 128.28727 3139 ft 172 kts 304°
2026-05-06 18:15 -3.63511 128.28497 3140 ft 166 kts 303°
2026-05-06 18:15 -3.63184 128.27948 3123 ft 168 kts 300°
2026-05-06 18:15 -3.62751 128.26862 3040 ft 168 kts 285°
2026-05-06 18:16 -3.62608 128.25709 2986 ft 166 kts 265°
2026-05-06 18:16 -3.62719 128.24584 2870 ft 160 kts 259°
2026-05-06 18:16 -3.62927 128.23499 2799 ft 157 kts 249°
2026-05-06 18:16 -3.63414 128.22533 2776 ft 155 kts 233°
2026-05-06 18:17 -3.64037 128.21657 2714 ft 153 kts 224°
2026-05-06 18:17 -3.64768 128.20891 2679 ft 151 kts 219°
2026-05-06 18:17 -3.65524 128.20151 2521 ft 153 kts 220°
2026-05-06 18:17 -3.66283 128.19406 2313 ft 152 kts 220°
2026-05-06 18:18 -3.67037 128.18671 2105 ft 150 kts 220°
2026-05-06 18:18 -3.67777 128.17937 1914 ft 150 kts 221°
2026-05-06 18:18 -3.68455 128.17146 1711 ft 151 kts 234°
2026-05-06 18:18 -3.68840 128.16168 1506 ft 153 kts 258°
2026-05-06 18:19 -3.68799 128.15110 1326 ft 152 kts 284°
2026-05-06 18:19 -3.68497 128.14104 1070 ft 151 kts 290°
2026-05-06 18:19 -3.68299 128.13098 846 ft 147 kts 270°
2026-05-06 18:19 -3.68409 128.12106 790 ft 142 kts 258°
2026-05-06 18:20 -3.68858 128.11160 643 ft 155 kts 235°
2026-05-06 18:20 -3.69608 128.10380 330 ft 153 kts 223°
2026-05-06 18:20 -3.70347 128.09644 56 ft 146 kts 225°
2026-05-06 18:20 -3.71016 128.08978 40 ft 120 kts 225°
2026-05-06 18:21 -3.71397 128.08597 42 ft 26 kts 224°
2026-05-06 18:21 -3.71490 128.08506 43 ft 25 kts 225°
2026-05-06 18:21 -3.71575 128.08428 43 ft 0 kts 208°
2026-05-06 18:21 -3.71599 128.08420 43 ft 8 kts 199°
2026-05-06 18:22 -3.71634 128.08396 43 ft 1 kts 233°
2026-05-06 18:22 -3.71630 128.08381 43 ft 1 kts 303°
2026-05-06 18:22 -3.71615 128.08382 43 ft 5 kts
2026-05-06 18:22 -3.71543 128.08445 43 ft 22 kts 47°
2026-05-06 18:23 -3.71416 128.08582 42 ft 30 kts 45°
2026-05-06 18:23 -3.71304 128.08692 40 ft 0 kts 45°
2026-05-06 18:23 -3.71271 128.08724 41 ft 10 kts 42°
2026-05-06 18:23 -3.71213 128.08782 41 ft 16 kts 45°
2026-05-06 18:24 -3.71128 128.08853 40 ft 11 kts 17°
2026-05-06 18:24 -3.71056 128.08824 41 ft 13 kts 318°
2026-05-06 18:24 -3.70980 128.08773 43 ft 14 kts 342°
2026-05-06 18:24 -3.70878 128.08767 43 ft 16 kts
2026-05-06 18:25 -3.70769 128.08767 43 ft 5 kts
2026-05-06 18:25 -3.70757 128.08767 43 ft 3 kts
2026-05-06 18:25 -3.70722 128.08773 43 ft 7 kts 13°
2026-05-06 18:25 -3.70661 128.08779 43 ft 7 kts
2026-05-06 18:26 -3.70644 128.08779 43 ft 0 kts